Location: Oberwangen
(47.4286°N, 8.9679°E)
Time: 15:29:18
(UTC+00:00)

BREEZE-M DEB (TANK) - Pass Details

Date: 20 June 2021
Orbit: 320 x 14772 km, 49.5° (Epoch: 02 August)

Event Time Altitude Azimuth Distance (km) Brightness Sun altitude
Rises 20:00:56 0° 227° (SW) 2,059 5.8 -5.5°
Reaches altitude 10° 20:02:33 10° 218° (SW) 1,252 4.6 -5.7°
Maximum altitude 20:04:44 39° 145° (SE) 632 2.7 -6.0°
Drops below altitude 10° 20:08:33 10° 74° (ENE) 2,202 5.6 -6.4°
Sets 20:12:32 0° 69° (ENE) 4,162 7.1 -6.9°
